When you browse on this site, cookies collect data to enhance your experience and personalize the content and advertising you see.
Visit our Privacy Policy to learn more. By continuing to use the site, you agree to this use of cookies and data.
  • In Schweiz
  • Länderverzeichnis
  • Für 7 Tage
  • Wassertemperatur
  • Satellitenkarten
  • Wetterkarte
  • Widgets
  • user-avatar
    Anmelden

    Stündliche Wetter Zagorze

    Heute, 13 Dezember, Donnerstag

    Zeit Temperatur Niederschläge Wind Luftdruck Luftfeuchtigkeit
    00:00 -2°C° 0.1 mm 2 m/S 752 mmHg 92%
    01:00 +1°C° 0.1 mm 1 m/S 752 mmHg 93%
    02:00 -1°C° 0.1 mm 2 m/S 752 mmHg 93%
    03:00 -1°C° 0.1 mm 2 m/S 751 mmHg 93%
    04:00 -1°C° 0.1 mm 2 m/S 751 mmHg 93%
    05:00 -1°C° 0.1 mm 2 m/S 751 mmHg 93%
    06:00 -1°C° 0.1 mm 2 m/S 751 mmHg 93%
    07:00 -1°C° 0.1 mm 2 m/S 751 mmHg 93%
    08:00 -1°C° 0.1 mm 2 m/S 751 mmHg 92%
    09:00 -1°C° 0.1 mm 2 m/S 751 mmHg 90%
    10:00 +1°C° 0.1 mm 2 m/S 752 mmHg 88%
    11:00 +1°C° 0 mm 2 m/S 751 mmHg 86%
    12:00 +1°C° 0 mm 2 m/S 751 mmHg 84%
    13:00 +1°C° 0 mm 2 m/S 751 mmHg 83%
    14:00 +1°C° 0 mm 2 m/S 751 mmHg 83%
    15:00 -1°C° 0 mm 2 m/S 751 mmHg 83%
    16:00 -1°C° 0 mm 2 m/S 751 mmHg 84%
    17:00 -1°C° 0 mm 2 m/S 751 mmHg 84%
    18:00 -1°C° 0 mm 2 m/S 751 mmHg 84%
    19:00 -1°C° 0 mm 2 m/S 751 mmHg 84%
    20:00 -1°C° 0 mm 2 m/S 751 mmHg 84%
    21:00 -1°C° 0 mm 2 m/S 752 mmHg 84%
    22:00 +1°C° 0 mm 1 m/S 752 mmHg 84%
    23:00 +1°C° 0 mm 1 m/S 752 mmHg 84%

    Morgen, 14 Dezember, Freitag

    Zeit Temperatur Niederschläge Wind Luftdruck Luftfeuchtigkeit
    00:00 +1°C° 0 mm 1 m/S 752 mmHg 84%
    01:00 +1°C° 0 mm 1 m/S 752 mmHg 85%
    02:00 0°C° 0 mm 1 m/S 752 mmHg 85%
    03:00 0°C° 0 mm 1 m/S 752 mmHg 85%
    04:00 0°C° 0 mm 1 m/S 752 mmHg 85%
    05:00 -2°C° 0 mm 2 m/S 752 mmHg 85%
    06:00 -2°C° 0 mm 2 m/S 752 mmHg 85%
    07:00 -2°C° 0 mm 2 m/S 753 mmHg 86%
    08:00 -2°C° 0 mm 2 m/S 753 mmHg 84%
    09:00 -2°C° 0 mm 2 m/S 753 mmHg 82%
    10:00 -2°C° 0 mm 2 m/S 753 mmHg 80%
    11:00 -2°C° 0 mm 2 m/S 753 mmHg 77%
    12:00 -1°C° 0 mm 2 m/S 753 mmHg 75%
    13:00 -1°C° 0 mm 2 m/S 753 mmHg 72%
    14:00 -2°C° 0 mm 2 m/S 753 mmHg 76%
    15:00 -2°C° 0 mm 2 m/S 753 mmHg 79%
    16:00 -3°C° 0 mm 2 m/S 753 mmHg 82%
    17:00 -3°C° 0 mm 2 m/S 754 mmHg 84%
    18:00 -3°C° 0 mm 2 m/S 754 mmHg 85%
    19:00 -3°C° 0 mm 2 m/S 754 mmHg 86%
    20:00 -3°C° 0 mm 2 m/S 754 mmHg 87%
    21:00 -3°C° 0 mm 2 m/S 754 mmHg 89%
    22:00 -3°C° 0 mm 2 m/S 755 mmHg 90%
    23:00 -2°C° 0 mm 2 m/S 755 mmHg 90%

    übermorgen, 15 Dezember, Samstag

    Zeit Temperatur Niederschläge Wind Luftdruck Luftfeuchtigkeit
    00:00 -2°C° 0 mm 2 m/S 755 mmHg 90%
    01:00 -2°C° 0 mm 2 m/S 755 mmHg 90%
    02:00 -2°C° 0 mm 2 m/S 755 mmHg 90%
    03:00 -2°C° 0 mm 2 m/S 755 mmHg 91%
    04:00 -2°C° 0 mm 2 m/S 755 mmHg 92%
    05:00 -2°C° 0 mm 2 m/S 755 mmHg 91%
    06:00 -2°C° 0 mm 3 m/S 755 mmHg 91%
    07:00 -2°C° 0 mm 3 m/S 755 mmHg 90%
    08:00 -2°C° 0 mm 3 m/S 755 mmHg 88%
    09:00 -1°C° 0 mm 3 m/S 755 mmHg 86%
    10:00 -2°C° 0 mm 4 m/S 756 mmHg 84%
    11:00 -2°C° 0 mm 4 m/S 756 mmHg 81%
    12:00 -2°C° 0 mm 4 m/S 755 mmHg 79%
    13:00 -1°C° 0 mm 3 m/S 755 mmHg 76%
    14:00 -1°C° 0 mm 3 m/S 755 mmHg 77%
    15:00 -1°C° 0 mm 3 m/S 755 mmHg 79%
    16:00 -2°C° 0 mm 3 m/S 755 mmHg 81%
    17:00 -2°C° 0 mm 3 m/S 755 mmHg 81%
    18:00 -2°C° 0 mm 3 m/S 755 mmHg 81%
    19:00 -2°C° 0 mm 3 m/S 755 mmHg 81%
    20:00 -2°C° 0 mm 3 m/S 755 mmHg 80%
    21:00 -3°C° 0 mm 4 m/S 755 mmHg 79%
    22:00 -3°C° 0 mm 4 m/S 755 mmHg 79%
    23:00 -3°C° 0 mm 4 m/S 755 mmHg 79%

    16 Dezember, Sonntag

    Zeit Temperatur Niederschläge Wind Luftdruck Luftfeuchtigkeit
    00:00 -3°C° 0 mm 4 m/S 754 mmHg 79%
    01:00 -4°C° 0 mm 4 m/S 754 mmHg 80%
    02:00 -4°C° 0 mm 4 m/S 754 mmHg 79%
    03:00 -4°C° 0 mm 4 m/S 753 mmHg 79%
    04:00 -4°C° 0 mm 4 m/S 753 mmHg 79%
    05:00 -4°C° 0 mm 4 m/S 753 mmHg 78%
    06:00 -4°C° 0 mm 4 m/S 753 mmHg 77%
    07:00 -4°C° 0 mm 4 m/S 752 mmHg 76%
    08:00 -3°C° 0 mm 4 m/S 752 mmHg 75%
    09:00 -4°C° 0 mm 5 m/S 752 mmHg 73%
    10:00 -4°C° 0 mm 5 m/S 752 mmHg 72%
    11:00 -4°C° 0 mm 5 m/S 751 mmHg 72%
    12:00 -4°C° 0 mm 5 m/S 751 mmHg 72%
    13:00 -2°C° 0 mm 4 m/S 751 mmHg 72%
    14:00 -3°C° 0 mm 4 m/S 750 mmHg 74%
    15:00 -2°C° 0 mm 3 m/S 750 mmHg 76%
    16:00 -2°C° 0 mm 3 m/S 750 mmHg 79%
    17:00 -2°C° 0 mm 3 m/S 750 mmHg 80%
    18:00 -4°C° 0 mm 3 m/S 750 mmHg 82%
    19:00 -4°C° 0 mm 3 m/S 749 mmHg 84%
    20:00 -3°C° 0 mm 2 m/S 749 mmHg 85%
    21:00 -3°C° 0 mm 2 m/S 749 mmHg 87%
    22:00 -3°C° 0 mm 2 m/S 749 mmHg 88%
    23:00 -3°C° 0 mm 2 m/S 749 mmHg 89%

    17 Dezember, Montag

    Zeit Temperatur Niederschläge Wind Luftdruck Luftfeuchtigkeit
    00:00 -3°C° 0 mm 2 m/S 749 mmHg 89%
    01:00 -3°C° 0 mm 2 m/S 749 mmHg 90%
    02:00 -3°C° 0 mm 2 m/S 748 mmHg 90%
    03:00 -3°C° 0 mm 2 m/S 748 mmHg 90%
    04:00 -4°C° 0 mm 2 m/S 748 mmHg 90%
    05:00 -4°C° 0 mm 2 m/S 748 mmHg 88%
    06:00 -4°C° 0 mm 2 m/S 748 mmHg 86%
    07:00 -4°C° 0 mm 2 m/S 748 mmHg 84%
    08:00 -3°C° 0 mm 2 m/S 748 mmHg 80%
    09:00 -3°C° 0 mm 2 m/S 748 mmHg 77%
    10:00 -3°C° 0 mm 2 m/S 748 mmHg 74%
    11:00 -2°C° 0 mm 2 m/S 748 mmHg 72%
    12:00 -2°C° 0 mm 2 m/S 748 mmHg 70%
    13:00 -1°C° 0 mm 2 m/S 748 mmHg 68%
    14:00 -1°C° 0 mm 2 m/S 748 mmHg 70%
    15:00 -2°C° 0 mm 2 m/S 748 mmHg 72%
    16:00 -2°C° 0 mm 2 m/S 749 mmHg 75%
    17:00 -2°C° 0 mm 2 m/S 749 mmHg 77%
    18:00 -1°C° 0 mm 2 m/S 749 mmHg 79%
    19:00 -1°C° 0 mm 2 m/S 749 mmHg 80%
    20:00 -1°C° 0 mm 2 m/S 749 mmHg 83%
    21:00 -2°C° 0 mm 2 m/S 750 mmHg 85%
    22:00 -2°C° 0 mm 2 m/S 750 mmHg 87%
    23:00 -2°C° 0 mm 2 m/S 750 mmHg 88%

    18 Dezember, Dienstag

    Zeit Temperatur Niederschläge Wind Luftdruck Luftfeuchtigkeit
    00:00 -1°C° 0 mm 2 m/S 750 mmHg 88%
    01:00 -1°C° 0 mm 2 m/S 750 mmHg 88%
    02:00 -1°C° 0 mm 2 m/S 750 mmHg 89%
    03:00 -1°C° 0 mm 2 m/S 750 mmHg 89%
    04:00 -1°C° 0 mm 2 m/S 750 mmHg 90%
    05:00 +1°C° 0 mm 1 m/S 750 mmHg 90%
    06:00 +1°C° 0 mm 1 m/S 750 mmHg 90%
    07:00 +1°C° 0 mm 1 m/S 751 mmHg 90%
    08:00 +1°C° 0 mm 1 m/S 751 mmHg 90%
    09:00 +1°C° 0 mm 1 m/S 751 mmHg 89%
    10:00 +2°C° 0 mm 1 m/S 751 mmHg 89%
    11:00 +2°C° 0 mm 1 m/S 751 mmHg 89%
    12:00 +2°C° 0 mm 1 m/S 751 mmHg 89%
    13:00 +2°C° 0 mm 1 m/S 751 mmHg 89%
    14:00 +2°C° 0 mm 1 m/S 751 mmHg 91%
    15:00 +2°C° 0 mm 1 m/S 751 mmHg 92%
    16:00 +1°C° 0 mm 1 m/S 751 mmHg 94%
    17:00 +1°C° 0 mm 1 m/S 751 mmHg 94%
    18:00 +1°C° 0 mm 1 m/S 751 mmHg 95%
    19:00 -1°C° 0 mm 2 m/S 751 mmHg 95%
    20:00 -1°C° 0 mm 2 m/S 751 mmHg 95%
    21:00 -1°C° 0 mm 2 m/S 751 mmHg 95%
    22:00 -2°C° 0 mm 2 m/S 751 mmHg 94%
    23:00 -2°C° 0 mm 2 m/S 750 mmHg 94%
    Mehr zeigen